• In Latvia
  • List of Countries
  • For 7 days
  • Water Temperature
  • Satellite Maps
  • Weather Map
  • Weather Widgets
  • user-avatar
    Login

    Hourly Weather Middlesbrough

    Today, 24 November, Friday

    Time Temperature Precipitation Wind Pressure Humidity
    00:00 +2°C° 0 mm 5 mps 751 mmHg 81%
    01:00 +1°C° 0 mm 4 mps 751 mmHg 81%
    02:00 +1°C° 0 mm 4 mps 751 mmHg 82%
    03:00 +1°C° 0 mm 4 mps 751 mmHg 83%
    04:00 +1°C° 0 mm 4 mps 752 mmHg 83%
    05:00 0°C° 0 mm 4 mps 752 mmHg 83%
    06:00 +1°C° 0 mm 3 mps 753 mmHg 84%
    07:00 +1°C° 0 mm 3 mps 753 mmHg 83%
    08:00 +1°C° 0 mm 3 mps 754 mmHg 83%
    09:00 +2°C° 0 mm 3 mps 754 mmHg 82%
    10:00 +3°C° 0 mm 4 mps 754 mmHg 77%
    11:00 +4°C° 0 mm 4 mps 754 mmHg 72%
    12:00 +5°C° 0 mm 5 mps 755 mmHg 67%
    13:00 +5°C° 0 mm 4 mps 755 mmHg 69%
    14:00 +4°C° 0 mm 4 mps 755 mmHg 70%
    15:00 +4°C° 0 mm 4 mps 755 mmHg 72%
    16:00 +4°C° 0.1 mm 4 mps 755 mmHg 74%
    17:00 +3°C° 0.1 mm 4 mps 755 mmHg 76%
    18:00 +3°C° 0.1 mm 4 mps 755 mmHg 78%
    19:00 +1°C° 0.3 mm 4 mps 755 mmHg 79%
    20:00 +1°C° 0.3 mm 4 mps 755 mmHg 80%
    21:00 +1°C° 0.3 mm 4 mps 755 mmHg 81%
    22:00 +1°C° 0 mm 4 mps 756 mmHg 80%
    23:00 0°C° 0 mm 4 mps 756 mmHg 80%

    Tomorrow, 25 November, Saturday

    Time Temperature Precipitation Wind Pressure Humidity
    00:00 0°C° 0 mm 4 mps 756 mmHg 79%
    01:00 0°C° 0 mm 4 mps 756 mmHg 78%
    02:00 -1°C° 0 mm 4 mps 756 mmHg 77%
    03:00 -1°C° 0 mm 4 mps 756 mmHg 76%
    04:00 -1°C° 0 mm 5 mps 756 mmHg 77%
    05:00 -1°C° 0 mm 5 mps 756 mmHg 77%
    06:00 -1°C° 0 mm 5 mps 757 mmHg 77%
    07:00 0°C° 0 mm 5 mps 757 mmHg 77%
    08:00 0°C° 0 mm 5 mps 757 mmHg 76%
    09:00 0°C° 0 mm 5 mps 758 mmHg 75%
    10:00 +1°C° 0 mm 5 mps 758 mmHg 71%
    11:00 +2°C° 0 mm 6 mps 759 mmHg 67%
    12:00 +3°C° 0 mm 6 mps 759 mmHg 63%
    13:00 +3°C° 0 mm 6 mps 759 mmHg 65%
    14:00 +2°C° 0 mm 6 mps 759 mmHg 68%
    15:00 +2°C° 0 mm 6 mps 760 mmHg 70%
    16:00 +1°C° 0 mm 6 mps 760 mmHg 72%
    17:00 +1°C° 0 mm 6 mps 760 mmHg 74%
    18:00 -1°C° 0 mm 6 mps 761 mmHg 76%
    19:00 -1°C° 0 mm 6 mps 761 mmHg 77%
    20:00 -1°C° 0 mm 6 mps 761 mmHg 77%
    21:00 -1°C° 0 mm 6 mps 761 mmHg 78%
    22:00 -1°C° 0 mm 6 mps 762 mmHg 78%
    23:00 -1°C° 0 mm 6 mps 762 mmHg 78%

    Day after tomorrow, 26 November, Sunday

    Time Temperature Precipitation Wind Pressure Humidity
    00:00 -1°C° 0 mm 6 mps 762 mmHg 78%
    01:00 -1°C° 0 mm 6 mps 762 mmHg 78%
    02:00 -1°C° 0 mm 6 mps 763 mmHg 79%
    03:00 -1°C° 0 mm 6 mps 763 mmHg 79%
    04:00 -1°C° 0 mm 6 mps 763 mmHg 80%
    05:00 -1°C° 0 mm 6 mps 764 mmHg 80%
    06:00 -1°C° 0 mm 6 mps 764 mmHg 80%
    07:00 -1°C° 0 mm 6 mps 764 mmHg 80%
    08:00 -1°C° 0 mm 6 mps 765 mmHg 79%
    09:00 -1°C° 0 mm 6 mps 765 mmHg 79%
    10:00 +1°C° 0 mm 6 mps 765 mmHg 75%
    11:00 +2°C° 0 mm 6 mps 766 mmHg 71%
    12:00 +3°C° 0 mm 7 mps 766 mmHg 66%
    13:00 +3°C° 0 mm 6 mps 766 mmHg 68%
    14:00 +2°C° 0 mm 5 mps 766 mmHg 70%
    15:00 +2°C° 0 mm 5 mps 767 mmHg 72%
    16:00 +2°C° 0 mm 5 mps 766 mmHg 76%
    17:00 +1°C° 0 mm 4 mps 766 mmHg 80%
    18:00 +1°C° 0 mm 4 mps 766 mmHg 84%
    19:00 +1°C° 0.1 mm 4 mps 766 mmHg 85%
    20:00 +3°C° 0.1 mm 4 mps 766 mmHg 86%
    21:00 +3°C° 0.1 mm 4 mps 765 mmHg 88%
    22:00 +3°C° 0.3 mm 5 mps 764 mmHg 89%
    23:00 +4°C° 0.3 mm 6 mps 764 mmHg 90%

    27 November, Monday

    Time Temperature Precipitation Wind Pressure Humidity
    00:00 +5°C° 0.3 mm 7 mps 763 mmHg 91%
    01:00 +5°C° 0.5 mm 8 mps 762 mmHg 89%
    02:00 +6°C° 0.5 mm 9 mps 761 mmHg 87%
    03:00 +6°C° 0.5 mm 10 mps 760 mmHg 85%
    04:00 +6°C° 0.5 mm 9 mps 760 mmHg 86%
    05:00 +6°C° 0.5 mm 8 mps 760 mmHg 87%
    06:00 +6°C° 0.5 mm 7 mps 760 mmHg 87%
    07:00 +7°C° 0.1 mm 6 mps 760 mmHg 86%
    08:00 +5°C° 0.1 mm 6 mps 760 mmHg 85%
    09:00 +6°C° 0.1 mm 5 mps 760 mmHg 84%
    10:00 +6°C° 0.1 mm 5 mps 760 mmHg 83%
    11:00 +6°C° 0.1 mm 5 mps 760 mmHg 82%
    12:00 +7°C° 0.1 mm 5 mps 760 mmHg 81%
    13:00 +6°C° 0.1 mm 5 mps 759 mmHg 81%
    14:00 +6°C° 0.1 mm 5 mps 759 mmHg 82%
    15:00 +6°C° 0.1 mm 5 mps 759 mmHg 83%
    16:00 +6°C° 0.1 mm 4 mps 758 mmHg 84%
    17:00 +5°C° 0.1 mm 4 mps 758 mmHg 86%
    18:00 +5°C° 0.1 mm 4 mps 757 mmHg 87%
    19:00 +5°C° 0.3 mm 5 mps 756 mmHg 87%
    20:00 +5°C° 0.3 mm 5 mps 755 mmHg 87%
    21:00 +4°C° 0.3 mm 6 mps 754 mmHg 86%
    22:00 +5°C° 0.2 mm 7 mps 753 mmHg 85%
    23:00 +5°C° 0.2 mm 7 mps 752 mmHg 84%

    28 November, Tuesday

    Time Temperature Precipitation Wind Pressure Humidity
    00:00 +5°C° 0.2 mm 8 mps 750 mmHg 83%
    01:00 +5°C° 0.6 mm 8 mps 750 mmHg 81%
    02:00 +4°C° 0.6 mm 7 mps 749 mmHg 79%
    03:00 +4°C° 0.6 mm 7 mps 748 mmHg 77%
    04:00 +4°C° 0 mm 6 mps 747 mmHg 78%
    05:00 +3°C° 0 mm 5 mps 746 mmHg 78%
    06:00 +3°C° 0 mm 4 mps 745 mmHg 79%
    07:00 +3°C° 0.4 mm 4 mps 745 mmHg 81%
    08:00 +3°C° 0.4 mm 3 mps 745 mmHg 83%
    09:00 +3°C° 0.4 mm 3 mps 745 mmHg 84%
    10:00 +3°C° 0.4 mm 5 mps 745 mmHg 82%
    11:00 +4°C° 0.4 mm 8 mps 746 mmHg 80%
    12:00 +3°C° 0.4 mm 11 mps 747 mmHg 77%
    13:00 +3°C° 0.2 mm 11 mps 747 mmHg 75%
    14:00 +3°C° 0.2 mm 11 mps 748 mmHg 74%
    15:00 +3°C° 0.2 mm 11 mps 749 mmHg 72%
    16:00 +2°C° 0.1 mm 11 mps 750 mmHg 72%
    17:00 +2°C° 0.1 mm 10 mps 750 mmHg 73%
    18:00 +2°C° 0.1 mm 10 mps 751 mmHg 73%
    19:00 +2°C° 0.1 mm 10 mps 751 mmHg 74%
    20:00 +2°C° 0.1 mm 10 mps 752 mmHg 74%
    21:00 +2°C° 0.1 mm 9 mps 753 mmHg 75%
    22:00 +2°C° 0.1 mm 10 mps 753 mmHg 75%
    23:00 +2°C° 0.1 mm 10 mps 754 mmHg 76%

    29 November, Wednesday

    Time Temperature Precipitation Wind Pressure Humidity
    00:00 +2°C° 0.1 mm 10 mps 754 mmHg 76%
    01:00 +1°C° 0.1 mm 9 mps 755 mmHg 76%
    02:00 +1°C° 0.1 mm 9 mps 755 mmHg 76%
    03:00 0°C° 0.1 mm 9 mps 756 mmHg 76%
    04:00 0°C° 0 mm 9 mps 756 mmHg 77%
    05:00 -1°C° 0 mm 8 mps 756 mmHg 78%
    06:00 -1°C° 0 mm 8 mps 757 mmHg 78%
    07:00 -1°C° 0 mm 8 mps 757 mmHg 78%
    08:00 -1°C° 0 mm 7 mps 757 mmHg 77%
    09:00 -2°C° 0 mm 7 mps 757 mmHg 77%
    10:00 -1°C° 0 mm 7 mps 758 mmHg 74%
    11:00 0°C° 0 mm 7 mps 758 mmHg 71%
    12:00 0°C° 0 mm 8 mps 758 mmHg 67%
    13:00 0°C° 0 mm 7 mps 758 mmHg 68%
    14:00 +1°C° 0 mm 6 mps 758 mmHg 69%
    15:00 -1°C° 0 mm 6 mps 758 mmHg 70%
    16:00 -1°C° 0 mm 6 mps 758 mmHg 72%
    17:00 -1°C° 0 mm 5 mps 758 mmHg 74%
    18:00 -1°C° 0 mm 5 mps 759 mmHg 76%
    19:00 -1°C° 0 mm 5 mps 758 mmHg 75%
    20:00 -1°C° 0 mm 5 mps 758 mmHg 75%
    21:00 -2°C° 0 mm 5 mps 758 mmHg 75%
    22:00 -2°C° 0 mm 5 mps 758 mmHg 74%
    23:00 -2°C° 0 mm 4 mps 758 mmHg 74%
    Show more